Regional Weather Roundup
Issued by NWS Midland/Odessa, TX

Skip options and go directly to product.
Home | Oldest Version | Previous Version | Current Version | All | Text Only | Save Text | Print | Product List | Glossary Off

Skip product version selection by date and time.   

581
ASUS44 KMAF 201610
RWRMAF
MIDLAND AREA WEATHER ROUNDUP
NATIONAL WEATHER SERVICE MIDLAND TX
1100 AM CDT SAT SEP 20 2014

...IN SOUTHWEST TEXAS AND SOUTHEAST NEW MEXICO...

CITY           SKY/WX    TMP DP  RH WIND       PRES   REMARKS
ALPINE         MOSUNNY   76  64  65 SW3       30.17S
ANDREWS        CLOUDY    73  70  91 S3        30.07R
ARTESIA        NOT AVBL
BIG SPRING     CLOUDY    76  71  84 SE12      30.06R
CARLSBAD       PTSUNNY   76  74  93 N7        30.06R
DRYDEN           N/A     82  71  69 E7        29.99R
FORT STOCKTON  MOSUNNY   74  70  87 W7        30.04R
GUAD PASS      CLOUDY    65  64  97 E12         N/A  FOG
HOBBS          LGT RAIN  68  68 100 N10       30.09R FOG
MARFA          PTSUNNY   70  64  83 S3        30.17R
MIDLAND AIRPK  NOT AVBL
MIDLAND INTL   CLOUDY    74  70  87 SE10      30.05R
ODESSA         CLOUDY    74  69  85 S5        30.05R HAZE
PECOS          CLOUDY    75  69  81 NW8       30.03R
PRESIDIO       FAIR      81  66  60 CALM      30.02S
SEMINOLE       LGT RAIN  68  67  96 NE3       30.09R
SNYDER         RAIN      70  70  98 SE8       30.06R
WINK           PTSUNNY   76  71  85 CALM      30.02R
$$
...OTHER STATIONS IN TEXAS...

CITY           SKY/WX    TMP DP  RH WIND       PRES   REMARKS
ABILENE        CLOUDY    77  69  76 SE10      30.04R
AMARILLO       CLOUDY    71  66  84 SE8       30.11R
AUSTIN         PTSUNNY   81  74  79 E6        29.98S
BROWNSVILLE    PTSUNNY   88  76  67 SE6       29.90R
CORPUS CHRISTI PTSUNNY   86  77  74 NE14      29.92R
DALLAS FTW     PTSUNNY   83  70  64 S13       30.02R
DEL RIO        CLOUDY    79  74  84 E8        29.96R
EL PASO        MOSUNNY   76  65  68 NE5       30.08R
HOUSTON INT    MOSUNNY   83  72  69 E13       29.97S
LUBBOCK        CLOUDY    71  68  90 SE13      30.07R
SAN ANGELO     LGT RAIN  75  71  87 SE3       30.04R
SAN ANTONIO    PTSUNNY   82  73  74 E10       29.99R
WACO           CLOUDY    78  72  81 E8        30.02R
WICHITA FALLS  NOT AVBL
$$
...OTHER LOCATIONS IN NEW MEXICO...

CITY           SKY/WX    TMP DP  RH WIND       PRES   REMARKS
ALAMAGORDO     MOSUNNY   73  64  73 SW3       30.11R
ALBUQUERQUE    SUNNY     71  57  61 N9        30.19R
CANNON AFB     CLOUDY    66  66 100 E8        30.14R
CLOVIS           N/A     66  61  82 NE7       30.16R
HOLLOMAN AFB   MOSUNNY   75  65  70 CALM      30.08R
ROSWELL        CLOUDY    70  65  84 N6        30.10R
RUIDOSO        SUNNY     66  59  77 CALM      30.27R
SANTA FE       SUNNY     70  53  54 N13       30.24S
TRUTH OR CONSE SUNNY     73  61  65 N6        30.13R
TUCUMCARI      SUNNY     75  61  61 NW7       30.09S
$$

USA.gov is the U.S. government's official web portal to all federal, state and local government web resources and services.